#timestamp,LO_Frequency,Hit,StdDev 
1509991215.8,286047006.6,N
1509991235.6,286047008.2,N
1509991255.5,286047008.4,N
1509991275.3,286047007.9,N
1509991295.1,286047008.0,N
1509991315.9,286047006.7,N
1509991335.7,286047001.5,N
1509991355.6,286046999.3,N
1509991375.4,286046998.7,N
1509991395.2,286047001.7,N
1509991415.1,286047004.0,N
1509991416.0,286047004.0,N
1509991435.8,286047003.5,N
1509991455.7,286047003.5,N
1509991475.5,286047003.1,N
1509991495.3,286047006.0,N
1509991515.2,286047006.2,N
1509991535.0,286047008.1,N
1509991535.9,286047008.1,N
1509991555.8,286047010.9,Y
1509991575.6,286047006.2,P
1509991595.5,286047009.0,P
1509991615.3,286047005.1,N
1509991635.1,286047001.6,N
1509991655.9,286047000.9,N
1509991675.7,286047001.8,N
1509991695.6,286047000.4,N
1509991715.4,286047001.4,N
1509991735.2,286047001.3,N
1509991755.1,286047004.3,N
1509991756.0,286047004.3,N
1509991775.8,286047006.5,N
1509991795.7,286047003.2,N
1509991815.5,286047004.0,N
1509991835.3,286047001.9,N
1509991855.2,286047000.6,N
1509991875.0,286047000.8,N
1509991875.9,286047000.8,N
1509991895.8,286046997.1,N
1509991915.6,286046998.7,N
1509991935.4,286047004.2,N
1509991955.3,286047007.4,N
1509991975.1,286047008.1,N
1509991995.9,286047010.5,Y
1509992015.7,286047010.8,P
1509992035.6,286047010.1,N
1509992055.4,286047010.2,N
1509992075.2,286047007.7,N
1509992095.1,286047010.2,Y
1509992115.8,286047003.9,P
1509992135.7,286047002.9,N
1509992155.5,286047006.0,N
1509992175.4,286047003.4,N
1509992195.2,286047003.8,N
1509992215.1,286047003.7,N
1509992216.0,286047003.7,N
1509992235.8,286047004.0,N
1509992255.6,286047002.4,N
1509992275.5,286046995.0,Y
1509992295.3,286046990.8,P
1509992315.2,286046992.0,N
1509992335.0,286046997.8,N
1509992335.9,286046997.8,N
1509992355.8,286046995.1,N
1509992375.6,286046996.8,N
1509992395.4,286046996.0,N
1509992415.3,286046995.3,N
1509992435.1,286046995.0,N
1509992455.9,286046999.0,N
1509992475.7,286046996.9,N
1509992495.5,286047000.4,N
1509992515.4,286047003.9,N
1509992535.2,286047000.2,N
1509992555.1,286046997.8,N
1509992556.0,286046997.8,N
1509992575.8,286046993.3,N
1509992595.7,286046991.8,N
1509992615.5,286046991.0,N
1509992635.3,286046989.5,N
1509992655.2,286046987.0,Y
1509992675.0,286046990.6,P
1509992676.0,286046990.6,P
1509992695.8,286046990.7,P
1509992715.6,286046990.7,Y
1509992735.5,286047001.9,P
1509992755.3,286047002.5,N
1509992775.2,286046997.0,N
1509992795.9,286046996.5,N
1509992815.7,286046997.0,N
1509992835.6,286046997.3,N
1509992855.4,286046995.3,N
1509992875.3,286046996.7,N
1509992895.1,286046999.5,N
1509992915.9,286047001.8,N
1509992935.7,286047001.0,N
1509992955.5,286047002.6,N
1509992975.4,286047002.1,N
1509992995.2,286047004.0,N
1509993015.1,286047004.2,N
1509993016.0,286047004.2,N
1509993035.8,286047003.8,N
1509993055.7,286047002.0,N
1509993075.5,286047000.2,N
1509993095.3,286046999.1,N
1509993115.2,286046995.0,N
1509993135.0,286046996.3,N
1509993135.9,286046996.3,N
1509993155.8,286046994.1,N
1509993175.6,286046991.7,N
1509993195.4,286046994.7,N
1509993215.3,286046997.5,N
1509993235.1,286046998.8,N
1509993255.9,286046999.4,N
1509993275.7,286046996.2,N
1509993295.6,286046994.9,N
1509993315.4,286047000.9,N
1509993335.2,286046998.3,N
1509993355.1,286047002.2,N
1509993356.0,286047002.2,N
1509993375.8,286047006.0,N
1509993395.7,286047006.4,N
1509993415.5,286047006.2,N
1509993435.4,286047006.6,N
1509993455.2,286047008.7,N
1509993475.0,286047009.7,N
1509993476.0,286047009.7,N
1509993495.8,286047011.7,N
1509993515.6,286047011.5,N
1509993535.5,286047013.7,N
1509993555.3,286047015.0,N
1509993575.1,286047016.4,N
1509993595.9,286047017.1,N
1509993615.7,286047015.3,N
1509993635.6,286047013.0,N
1509993655.4,286047010.0,N
1509993675.3,286047006.6,N
1509993695.1,286047008.2,N
1509993715.8,286047009.6,N
1509993735.7,286047011.7,N
1509993755.5,286047012.6,N
1509993775.4,286047015.0,N
1509993795.2,286047013.5,N
1509993815.0,286047009.4,N
1509993816.0,286047009.4,N
1509993835.8,286047009.6,N
1509993855.6,286047012.3,N
1509993875.5,286047008.1,N
1509993895.3,286047006.6,N
1509993915.2,286047006.8,N
1509993935.9,286047008.4,N
1509993955.7,286047008.6,N
1509993975.6,286047006.1,N
1509993995.4,286047008.0,N
1509994015.3,286047009.9,Y
1509994035.1,286047000.1,P
1509994055.9,286046997.9,N
1509994075.7,286046999.6,N
1509994095.5,286046999.5,N
1509994115.4,286046996.4,N
1509994135.2,286046993.9,N
1509994155.1,286046988.5,N
1509994156.0,286046988.5,N
1509994175.8,286046991.4,N
1509994195.7,286046987.4,N
1509994215.5,286046990.9,N
1509994235.3,286046991.3,N
1509994255.2,286046989.1,N
1509994275.0,286046990.7,N
1509994275.9,286046990.7,N
1509994295.8,286046993.0,N
1509994315.6,286046990.8,N
1509994335.5,286046988.7,N
1509994355.3,286046989.5,N
1509994375.1,286046989.9,N
1509994395.9,286046989.7,N
1509994415.7,286046992.9,N
1509994435.6,286046993.5,N
1509994455.4,286046989.7,N
1509994475.2,286046986.3,N
1509994495.1,286046982.2,Y
1509994515.8,286046990.0,P
1509994535.7,286046990.0,P
1509994555.5,286046988.3,P
1509994575.4,286046986.4,Y
1509994595.2,286046994.4,P
1509994615.1,286046997.7,N
1509994616.0,286046997.7,N
1509994635.8,286046995.3,N
1509994655.6,286046997.9,N
1509994675.5,286046996.4,N
1509994695.3,286046994.5,N
1509994715.2,286046992.8,Y
1509994735.0,286046993.3,P
1509994735.9,286046993.3,P
1509994755.8,286046998.0,N
1509994775.6,286046993.7,Y
1509994795.5,286046991.8,P
